Simultaneous Nadir Overpasses (SNOs) Predictions

Prediction of SNOs near equator between AQUA and NPP Satellite Orbit:

Table of predicted SNOs near equator for the next 14.0 days since TLE Epoch: 2/29/2020
Index Date (AQUA) Time (AQUA) AQUA Lat,Lon Date (NPP) Time (NPP) NPP Lat,Lon Distance(km) Time Diff (sec)
1 03/02/2020 16:26:25 7.07, -43.69 03/02/2020 16:16:25 7.12, -44.03 37.90 600
2 03/02/2020 17:14:21 -1.83, 125.09 03/02/2020 17:05:34 -1.73, 124.51 64.73 527
3 03/02/2020 18:02:36 -2.73, -66.32 03/02/2020 17:55:04 -2.93, -67.15 94.81 452
4 03/05/2020 08:42:18 4.87, 72.66 03/05/2020 08:32:40 4.77, 72.27 45.00 578
5 03/05/2020 09:30:26 -0.36,-118.72 03/05/2020 09:22:03 -0.21,-119.38 75.06 503
6 03/08/2020 00:58:23 3.35,-171.13 03/08/2020 00:49:10 3.25,-171.62 55.39 553
7 03/08/2020 01:46:31 1.16, -2.52 03/08/2020 01:38:33 1.32, -3.27 85.38 478
8 03/10/2020 16:27:32 -11.15, 135.44 03/10/2020 16:17:32 -11.20, 135.05 43.21 600
9 03/10/2020 17:14:28 1.84, -54.93 03/10/2020 17:05:40 1.73, -55.51 65.89 528
10 03/10/2020 18:02:37 2.62, 113.67 03/10/2020 17:55:04 2.78, 112.82 95.79 453
11 03/13/2020 08:42:19 -4.93,-107.34 03/13/2020 08:32:40 -4.87,-107.75 45.95 579
12 03/13/2020 09:30:33 0.33, 61.27 03/13/2020 09:22:10 0.21, 60.59 76.41 503




NCC Satellite Simultaneous Nadir Overpasses (SNOs) Prediction Service
